• In Germany
  • List of Countries
  • For 7 days
  • Water Temperature
  • Satellite Maps
  • Weather Map
  • Weather Widgets
  • user-avatar
    Login

    Hourly Weather Neiva

    Today, 26 September, Tuesday

    Time Temperature Precipitation Wind Pressure Humidity
    00:00 +26°C° 0 mm 2 mps 721 mmHg 65%
    01:00 +25°C° 0 mm 2 mps 721 mmHg 64%
    02:00 +25°C° 0 mm 2 mps 721 mmHg 63%
    03:00 +25°C° 0 mm 1 mps 720 mmHg 63%
    04:00 +25°C° 0 mm 1 mps 720 mmHg 63%
    05:00 +26°C° 0.1 mm 1 mps 721 mmHg 62%
    06:00 +26°C° 0.1 mm 1 mps 721 mmHg 60%
    07:00 +27°C° 0.1 mm 1 mps 721 mmHg 59%
    08:00 +29°C° 0.1 mm 1 mps 722 mmHg 54%
    09:00 +31°C° 0.1 mm 1 mps 722 mmHg 48%
    10:00 +34°C° 0.1 mm 1 mps 722 mmHg 43%
    11:00 +35°C° 0 mm 1 mps 721 mmHg 41%
    12:00 +37°C° 0 mm 2 mps 720 mmHg 39%
    13:00 +38°C° 0 mm 2 mps 720 mmHg 37%
    14:00 +37°C° 0 mm 2 mps 719 mmHg 39%
    15:00 +37°C° 0 mm 2 mps 718 mmHg 40%
    16:00 +36°C° 0 mm 2 mps 718 mmHg 41%
    17:00 +34°C° 0 mm 2 mps 718 mmHg 49%
    18:00 +30°C° 0 mm 2 mps 719 mmHg 56%
    19:00 +28°C° 0 mm 1 mps 719 mmHg 63%
    20:00 +28°C° 0 mm 1 mps 720 mmHg 63%
    21:00 +27°C° 0 mm 1 mps 721 mmHg 64%
    22:00 +27°C° 0 mm 1 mps 721 mmHg 64%
    23:00 +26°C° 0 mm 1 mps 721 mmHg 64%

    Tomorrow, 27 September, Wednesday

    Time Temperature Precipitation Wind Pressure Humidity
    00:00 +26°C° 0 mm 1 mps 720 mmHg 64%
    01:00 +26°C° 0 mm 1 mps 720 mmHg 64%
    02:00 +25°C° 0 mm 1 mps 720 mmHg 64%
    03:00 +25°C° 0 mm 1 mps 720 mmHg 65%
    04:00 +25°C° 0 mm 1 mps 719 mmHg 65%
    05:00 +26°C° 0 mm 1 mps 720 mmHg 63%
    06:00 +26°C° 0 mm 1 mps 720 mmHg 62%
    07:00 +27°C° 0 mm 1 mps 720 mmHg 60%
    08:00 +29°C° 0 mm 1 mps 721 mmHg 53%
    09:00 +32°C° 0 mm 1 mps 721 mmHg 47%
    10:00 +34°C° 0 mm 1 mps 721 mmHg 41%
    11:00 +35°C° 0 mm 1 mps 720 mmHg 40%
    12:00 +37°C° 0 mm 2 mps 720 mmHg 38%
    13:00 +38°C° 0 mm 2 mps 719 mmHg 37%
    14:00 +37°C° 0.1 mm 2 mps 718 mmHg 39%
    15:00 +36°C° 0.1 mm 2 mps 718 mmHg 42%
    16:00 +36°C° 0.1 mm 2 mps 717 mmHg 44%
    17:00 +34°C° 0.2 mm 2 mps 718 mmHg 51%
    18:00 +31°C° 0.2 mm 2 mps 718 mmHg 59%
    19:00 +29°C° 0.2 mm 1 mps 719 mmHg 66%
    20:00 +28°C° 0.1 mm 1 mps 720 mmHg 67%
    21:00 +28°C° 0.1 mm 1 mps 720 mmHg 68%
    22:00 +27°C° 0.1 mm 1 mps 721 mmHg 68%
    23:00 +27°C° 0 mm 1 mps 720 mmHg 69%

    Day after tomorrow, 28 September, Thursday

    Time Temperature Precipitation Wind Pressure Humidity
    00:00 +27°C° 0 mm 1 mps 720 mmHg 69%
    01:00 +26°C° 0 mm 1 mps 720 mmHg 69%
    02:00 +26°C° 0 mm 1 mps 719 mmHg 70%
    03:00 +26°C° 0 mm 1 mps 719 mmHg 70%
    04:00 +24°C° 0 mm 0 mps 719 mmHg 71%
    05:00 +24°C° 0 mm 0 mps 719 mmHg 69%
    06:00 +25°C° 0 mm 0 mps 720 mmHg 67%
    07:00 +26°C° 0 mm 0 mps 721 mmHg 65%
    08:00 +30°C° 0.1 mm 1 mps 721 mmHg 59%
    09:00 +32°C° 0.1 mm 1 mps 721 mmHg 53%
    10:00 +34°C° 0.1 mm 1 mps 722 mmHg 47%
    11:00 +34°C° 0.1 mm 1 mps 721 mmHg 45%
    12:00 +35°C° 0.1 mm 1 mps 720 mmHg 44%
    13:00 +36°C° 0.1 mm 2 mps 719 mmHg 42%
    14:00 +36°C° 0.2 mm 2 mps 718 mmHg 43%
    15:00 +35°C° 0.2 mm 1 mps 718 mmHg 44%
    16:00 +34°C° 0.2 mm 1 mps 717 mmHg 45%
    17:00 +32°C° 0.2 mm 1 mps 718 mmHg 52%
    18:00 +31°C° 0.2 mm 1 mps 718 mmHg 59%
    19:00 +29°C° 0.2 mm 2 mps 719 mmHg 65%
    20:00 +28°C° 0.1 mm 1 mps 720 mmHg 67%
    21:00 +28°C° 0.1 mm 1 mps 720 mmHg 68%
    22:00 +27°C° 0.1 mm 1 mps 721 mmHg 69%
    23:00 +27°C° 0.1 mm 1 mps 720 mmHg 70%

    29 September, Friday

    Time Temperature Precipitation Wind Pressure Humidity
    00:00 +27°C° 0.1 mm 1 mps 720 mmHg 70%
    01:00 +26°C° 0.1 mm 1 mps 720 mmHg 71%
    02:00 +26°C° 0.1 mm 1 mps 720 mmHg 71%
    03:00 +26°C° 0.1 mm 1 mps 719 mmHg 71%
    04:00 +26°C° 0.1 mm 1 mps 719 mmHg 72%
    05:00 +26°C° 0.1 mm 1 mps 720 mmHg 69%
    06:00 +27°C° 0.1 mm 1 mps 721 mmHg 67%
    07:00 +28°C° 0.1 mm 1 mps 721 mmHg 65%
    08:00 +30°C° 0.1 mm 1 mps 721 mmHg 58%
    09:00 +32°C° 0.1 mm 1 mps 722 mmHg 52%
    10:00 +34°C° 0.1 mm 1 mps 722 mmHg 46%
    11:00 +35°C° 0.2 mm 1 mps 721 mmHg 44%
    12:00 +36°C° 0.2 mm 1 mps 720 mmHg 42%
    13:00 +37°C° 0.2 mm 1 mps 719 mmHg 40%
    14:00 +37°C° 0.4 mm 2 mps 718 mmHg 42%
    15:00 +36°C° 0.4 mm 2 mps 718 mmHg 44%
    16:00 +35°C° 0.4 mm 2 mps 718 mmHg 46%
    17:00 +32°C° 0.4 mm 2 mps 718 mmHg 52%
    18:00 +31°C° 0.4 mm 2 mps 719 mmHg 59%
    19:00 +29°C° 0.4 mm 2 mps 719 mmHg 65%
    20:00 +28°C° 0.2 mm 2 mps 720 mmHg 66%
    21:00 +28°C° 0.2 mm 2 mps 720 mmHg 67%
    22:00 +27°C° 0.2 mm 2 mps 721 mmHg 69%
    23:00 +27°C° 0.1 mm 1 mps 720 mmHg 69%

    30 September, Saturday

    Time Temperature Precipitation Wind Pressure Humidity
    00:00 +27°C° 0.1 mm 1 mps 720 mmHg 69%
    01:00 +27°C° 0.1 mm 1 mps 720 mmHg 69%
    02:00 +26°C° 0.1 mm 1 mps 719 mmHg 70%
    03:00 +26°C° 0.1 mm 1 mps 719 mmHg 70%
    04:00 +26°C° 0.1 mm 1 mps 719 mmHg 71%
    05:00 +26°C° 0.2 mm 1 mps 720 mmHg 70%
    06:00 +25°C° 0.2 mm 0 mps 720 mmHg 69%
    07:00 +25°C° 0.2 mm 0 mps 721 mmHg 68%
    08:00 +29°C° 0.3 mm 1 mps 721 mmHg 63%
    09:00 +30°C° 0.3 mm 1 mps 721 mmHg 58%
    10:00 +32°C° 0.3 mm 1 mps 722 mmHg 53%
    11:00 +33°C° 0.3 mm 1 mps 721 mmHg 50%
    12:00 +34°C° 0.3 mm 1 mps 720 mmHg 47%
    13:00 +35°C° 0.3 mm 1 mps 719 mmHg 45%
    14:00 +35°C° 0.2 mm 1 mps 718 mmHg 46%
    15:00 +35°C° 0.2 mm 2 mps 718 mmHg 48%
    16:00 +34°C° 0.2 mm 2 mps 717 mmHg 49%
    17:00 +32°C° 0.1 mm 2 mps 718 mmHg 55%
    18:00 +30°C° 0.1 mm 2 mps 718 mmHg 61%
    19:00 +28°C° 0.1 mm 1 mps 719 mmHg 68%
    20:00 +28°C° 0.1 mm 1 mps 719 mmHg 68%
    21:00 +27°C° 0.1 mm 1 mps 720 mmHg 69%
    22:00 +27°C° 0.1 mm 1 mps 720 mmHg 69%
    23:00 +27°C° 0 mm 1 mps 720 mmHg 69%

    1 October, Sunday

    Time Temperature Precipitation Wind Pressure Humidity
    00:00 +26°C° 0 mm 1 mps 719 mmHg 70%
    01:00 +26°C° 0 mm 1 mps 719 mmHg 70%
    02:00 +26°C° 0 mm 1 mps 718 mmHg 71%
    03:00 +26°C° 0 mm 1 mps 718 mmHg 71%
    04:00 +25°C° 0 mm 1 mps 718 mmHg 72%
    05:00 +26°C° 0 mm 1 mps 719 mmHg 70%
    06:00 +27°C° 0 mm 1 mps 719 mmHg 69%
    07:00 +25°C° 0 mm 0 mps 720 mmHg 67%
    08:00 +29°C° 0.1 mm 1 mps 720 mmHg 61%
    09:00 +31°C° 0.1 mm 1 mps 720 mmHg 55%
    10:00 +33°C° 0.1 mm 1 mps 720 mmHg 49%
    11:00 +33°C° 0.2 mm 1 mps 719 mmHg 48%
    12:00 +35°C° 0.2 mm 2 mps 718 mmHg 48%
    13:00 +35°C° 0.2 mm 2 mps 718 mmHg 47%
    14:00 +34°C° 0.4 mm 1 mps 717 mmHg 48%
    15:00 +34°C° 0.4 mm 1 mps 717 mmHg 48%
    16:00 +34°C° 0.4 mm 1 mps 716 mmHg 49%
    17:00 +32°C° 0.4 mm 1 mps 717 mmHg 55%
    18:00 +30°C° 0.4 mm 1 mps 718 mmHg 61%
    19:00 +28°C° 0.4 mm 1 mps 718 mmHg 67%
    20:00 +28°C° 0.4 mm 1 mps 719 mmHg 69%
    21:00 +26°C° 0.4 mm 0 mps 719 mmHg 71%
    22:00 +25°C° 0.4 mm 0 mps 720 mmHg 73%
    23:00 +25°C° 0.3 mm 0 mps 719 mmHg 75%
    Show more